Terminal Aerodrome Forecast
Issued by NWS Rapid City, SD

Home | Current Version | Previous Version | Text Only | Print | Product List | Glossary Off
Versions: 1 2 3 4 5 6 7 8 9 10 11 12 13 14 15 16 17 18 19 20

387
FTUS43 KUNR 290439 AAA
TAFRAP
TAF AMD
KRAP 290439Z 2905/2924 32003KT P6SM SCT027 OVC035
     FM290800 03004KT 2SM BR OVC005
     FM290900 03003KT 1SM BR OVC003
     FM291700 01010KT P6SM OVC007
     FM292000 06009KT P6SM OVC012=

USA.gov is the U.S. government's official web portal to all federal, state and local government web resources and services.